Location: Zilina
(49.2167°N, 18.7333°E)
Time: 05:52:36
(UTC+01:00)

ISS - Visible Passes

Search period start: 23 February 2018 00:00
Search period end: 05 March 2018 00:00
Orbit: 402 x 407 km, 51.6° (Epoch: 23 February)

Date Brightness Start Highest point End Pass type
(mag) Time Alt. Az. Time Alt. Az. Time Alt. Az.
27 Feb -1.0 05:33:47 10° S 05:36:01 17° SE 05:38:16 10° E visible
28 Feb -0.7 04:43:25 10° SE 04:43:59 10° SE 04:44:33 10° SE visible
01 Mar -2.2 05:24:40 10° SSW 05:27:38 32° SSE 05:30:36 10° E visible
02 Mar -1.6 04:34:05 16° S 04:35:29 20° SE 04:37:59 10° E visible
03 Mar -0.8 03:44:04 12° ESE 03:44:04 12° ESE 03:44:52 10° ESE visible
03 Mar -3.4 05:16:44 15° SW 05:19:19 59° SSE 05:22:33 10° ENE visible
04 Mar -2.8 04:26:36 35° S 04:27:03 37° SSE 04:30:07 10° E visible
